Regional Weather Roundup
Issued by NWS Sterling, VA

Home | Current Version | Previous Version | Graphics & Text | Print | Product List | Glossary On
Versions: 1 2 3 4 5 6 7 8 9 10 11 12 13 14 15 16 17 18 19 20 21 22 23 24 25 26 27 28 29 30 31 32 33 34 35 36 37 38 39 40 41 42 43 44 45 46 47 48 49 50
000
ASUS41 KLWX 282310
RWRLWX

REGIONAL WEATHER ROUNDUP
NATIONAL WEATHER SERVICE BALTIMORE MD/WASHINGTON DC
600 PM EST WED JAN 28 2015

Note: "FAIR" indicates few or no clouds below 12,000 feet
with no significant weather and/or obstructions to visibility.
 TC=TEMPERATURE CELSIUS

 * =Non NWS site. Station does not report precipitation (e.g. rain,
    snow, etc.), thunder, or fog.

DCZ001-MDZ009-015-VAZ040>042-051-053>054-290000-
WASHINGTON METRO

CITY           SKY/WX    TMP DP  RH WIND       PRES   REMARKS
WASHINGTON NAT PTCLDY    35   6  29 NW13      30.29R WCI  26
DULLES         PTCLDY    31   8  38 N8        30.28R WCI  23
ANDREWS AFB    CLEAR     31   7  36 NW9       30.26R WCI  23
FT BELVOIR     CLEAR     32   8  36 NW5       30.29R
QUANTICO       PTCLDY    34   5  29 N8        30.30R WCI  27
COLLEGE PARK*  CLEAR     32   9  37 NW6       30.27R
LEESBURG*      CLEAR     32  10  40 NW7       30.29R
MANASSAS*      CLEAR     30   9  40 N6        30.28R
GAITHERSBURG*  CLEAR     27   3  36 NW7       30.29R

$$

MDZ006>007-011-014-290000-
BALTIMORE METRO

CITY           SKY/WX    TMP DP  RH WIND       PRES   REMARKS
BWI AIRPORT    PTCLDY    29   7  39 W6        30.26R
MD SCIENCE CTR   N/A     33   3  28 MISG      30.26R
MARTIN STATE   CLEAR     30   9  40 W7        30.27R
ANNAPOLIS      FAIR      33   6  32 NW9       30.27R WCI  25
FORT MEADE*    CLEAR     30   9  40 NW6       30.29R

$$

MDZ012-015-019>023-290000-
MARYLAND EASTERN SHORE

CITY           SKY/WX    TMP DP  RH WIND       PRES   REMARKS
OCEAN CITY     CLEAR     31   9  39 NW9       30.21R WCI  23
SALISBURY      CLEAR     34   8  33 NW9       30.22R WCI  27
BAY BRIDGE AP*   N/A     34  10  37 NW13G18   30.26R WCI  25
CAMBRIDGE*     CLEAR     36  12  38 NW8       30.24R
EASTON*        CLEAR     32  12  43 MISG      30.28R

$$

MDZ017>025-290000-
SOUTHERN MARYLAND

CITY           SKY/WX    TMP DP  RH WIND       PRES   REMARKS
PATUXENT RIVER CLEAR     33  10  38 NW16      30.26R WCI  23
ST INIGOES     CLEAR     33   7  33 NW7       30.26R
LEONARDTOWN*   CLEAR     32   5  32 NW6       30.27

$$

MDZ003>005-290000-
NORTH CENTRAL MARYLAND

CITY           SKY/WX    TMP DP  RH WIND       PRES   REMARKS
FREDERICK*     CLEAR     30   3  31 MISG      30.30R
HAGERSTOWN APT CLEAR     27   4  37 NW9       30.27R WCI  18
WESTMINSTER*   PTCLDY    28   3  34 W7        30.23R

$$

MDZ501>502-290000-
WESTERN MARYLAND

CITY           SKY/WX    TMP DP  RH WIND       PRES   REMARKS
OAKLAND*       CLEAR     14  14 100 CALM      30.19R
CUMBERLAND*    CLEAR     30   5  34 W5        30.35R

$$

VAZ025>031-290000-
SHENANDOAH VALLEY

CITY           SKY/WX    TMP DP  RH WIND       PRES   REMARKS
WINCHESTER*    CLEAR     28   7  40 NW8       30.28R WCI  20
FRONT ROYAL*   FAIR      32   5  32 CALM      30.27R
LURAY*         FAIR      32  10  40 CALM      30.27R
NEW MARKET*    FAIR      30  11  46 CALM      30.26R
STAUNTON*      CLEAR     32   5  32 CALM      30.27R
WAYNESBORO*    FAIR      31   6  35 N5        30.24R

$$

WVZ021-048>050-054>055-290000-
EASTERN WEST VIRGINIA PANHANDLE

CITY           SKY/WX    TMP DP  RH WIND       PRES   REMARKS
MARTINSBURG    CLEAR     32   1  26 N3        30.28R
PETERSBURG*    CLEAR     26   9  49 CALM      30.30R

$$

VAZ036>039-050-290000-
CENTRAL FOOTHILLS

CITY           SKY/WX    TMP DP  RH WIND       PRES   REMARKS
CHARLOTTESVILL CLEAR     35  -2  20 VRB3      30.26R
CULPEPER*      CLEAR     34   3  27 N7        30.27S
ORANGE*        CLEAR     34   9  35 CALM      30.28R
GORDONSVILLE*  FAIR      31  13  47 CALM      30.26R
WARRENTON*     FAIR      32  13  45 N9        30.28R WCI  24

$$

VAZ055>057-290000-
NORTH AND CENTRAL PIEDMONT

CITY           SKY/WX    TMP DP  RH WIND       PRES   REMARKS
FREDERICKSBRG* CLEAR     36   6  28 NW6       30.28R
STAFFORD*      CLEAR     30   5  34 CALM      30.33R

$$

NCZ024-NYZ072-PAZ021-071-VAZ022-071-290000-
OTHER REGIONAL OBSERVATIONS

CITY           SKY/WX    TMP DP  RH WIND       PRES   REMARKS
NEW YORK CITY  CLEAR     32   3  29 VRB3      30.18R
PHILADELPHIA   CLEAR     32   3  29 NW9       30.22R WCI  24
PITTSBURGH     PTCLDY    21  11  65 S5        30.30S
ROANOKE        CLEAR     40   8  26 NW3       30.26R
RICHMOND       PTCLDY    37   2  22 N9        30.26R
RALEIGH        PTCLDY    39   9  29 CALM      30.27R

$$

ANZ530>537-290000-
MARINE OBSERVATIONS

STATION/POSITION TIME  TEMP    WIND        PRES
                       AIR SEA DIR/SP/G
                 (UTC) (F)     (DEG/KT/KT) (MB)
THOMAS PT LIGHT  2300   33 36  310/  8/ 10 1026.0R
BALT KEY BRIDGE  2300   34     290/ 14/ 17 1024.3R
COVE POINT       2300   33     330/ 16/ 20 1024.0R
LEWISETTA        2300   35 37  320/ 10/ 14 1024.3R
SOLOMONS ISLAND  2300      37                N/A
PINEY POINT      2300          340/ 17/ 18   N/A

$$




USA.gov is the U.S. government's official web portal to all federal, state and local government web resources and services.